Flag for Slovenia Weather past 2 weeks in Ljubljana, Slovenia

Now
49 °F

Cool.


Feels Like: 49 °F
Forecast: 40 / 66 °F
Wind: No wind

Location: Ljubljana / Bezigrad

Current Time: Sep 23, 2014 at 4:42:59 AM

Latest Report: Sep 23, 2014 at 4:00 AM


Visibility: N/A

Pressure: 29.99 "Hg

Humidity: 97%

Dew point: 48 °F

Location of LjubljanaLocation

Historic Weather in Ljubljana — Graph

°F

Ljubljana temperature yesterday

Maximum temperature yesterday: 69 °F (at 2:00 PM)
Minimum temperature yesterday: 51 °F (at 11:00 PM)
Average temperature yesterday: 61 °F

Past Weeks' High & Low Weather Summary

 TemperatureHumidityPressure
High83 °F (Sep 9, 4:00 PM)100% (Sep 17, 9:00 AM)30.12 "Hg (Sep 17, 9:00 AM)
Low49 °F (Sep 23, 3:00 AM)44% (Sep 9, 5:00 PM)29.81 "Hg (Sep 22, 3:00 PM)
Average62 °F86%29.99 "Hg
* Reported Sep 8 3:00 AM — Sep 23 3:00 AM, Ljubljana, Weather by CustomWeather, © 2014

Note: Actual official high and low records may vary slightly from our data, if they occured in-between our weather recording intervals... More about our weather records

Advertising

Ljubljana weather history for previous 24 hours

 ConditionsComfort  
Time TempWeatherWind HumidityBarometerVisibility
3:00 AM
Sep 23
49 °FCool.1 mph97%29.97 "HgN/A
2:00 AM50 °FCool.1 mph96%29.96 "HgN/A
1:00 AM51 °FCool.1 mph96%29.95 "HgN/A
12:00 AM51 °FCool.2 mph94%29.96 "HgN/A
11:00 PM
Sep 22
51 °FCool.1 mph90%29.98 "HgN/A
10:00 PM52 °FRain. Overcast.1 mph94%29.99 "Hg6 mi
9:00 PM52 °FRain. Overcast.3 mph92%29.96 "Hg7 mi
8:00 PM54 °FRain. Overcast.3 mph91%29.94 "Hg7 mi
7:00 PM56 °FThundershowers. Overcast.1 mph89%29.90 "Hg12 mi
6:00 PM58 °FThundershowers. Overcast.3 mph88%29.86 "Hg19 mi
5:00 PM62 °FThundershowers. Overcast.2 mph79%29.84 "Hg25 mi
4:00 PM65 °FSprinkles. Overcast.5 mph68%29.82 "Hg31 mi
3:00 PM67 °FScattered clouds.2 mph62%29.81 "Hg22 mi
2:00 PM69 °FScattered clouds.2 mph62%29.83 "Hg22 mi
1:00 PM67 °FScattered clouds.1 mph73%29.85 "Hg22 mi
12:00 PM63 °FMild.1 mph85%29.88 "HgN/A
11:00 AM60 °FLight rain. Low clouds.1 mph95%29.87 "Hg4 mi
10:00 AM60 °FLight rain. Low clouds.1 mph94%29.88 "Hg3 mi
9:00 AM60 °FFog.No wind93%29.87 "Hg4 mi
8:00 AM59 °FFog.1 mph95%29.86 "Hg4 mi
7:00 AM60 °FFog.1 mph94%29.86 "Hg4 mi
6:00 AM60 °FFog.1 mph97%29.85 "Hg1 mi
5:00 AM62 °FCool.1 mph98%29.84 "HgN/A
4:00 AM61 °FCool.No wind96%29.83 "HgN/A
Weather by CustomWeather, © 2014

See weather overviewHow to use our weather pages